| time (UTC) | temp F | wind direction | speed MPH | gust MPH | rain 1hr in | rain 24hr in | rain mn in | humidity % | barometer mb |
| 20260509180030 | 56 | 327 | 0.0 | 2.0 | 0.00 | 0.77 | 0.55 | 86 | 1012.0 |
| 20260509174530 | 56 | 327 | 0.0 | 3.0 | 0.00 | 0.78 | 0.55 | 84 | 1011.9 |
| 20260509173029 | 56 | 119 | 2.0 | 6.0 | 0.00 | 0.78 | 0.55 | 81 | 1012.9 |
| 20260509171530 | 57 | 142 | 1.0 | 4.0 | 0.00 | 0.78 | 0.55 | 77 | 1012.7 |
| 20260509170029 | 59 | 127 | 1.0 | 4.0 | 0.00 | 0.78 | 0.55 | 73 | 1012.7 |
| 20260509164526 | 59 | 131 | 1.0 | 4.0 | 0.00 | 0.78 | 0.55 | 72 | 1012.4 |
| 20260509163029 | 59 | 102 | 2.0 | 10.0 | 0.00 | 0.78 | 0.55 | 73 | 1012.6 |
| 20260509161525 | 59 | 109 | 2.0 | 8.0 | 0.00 | 0.78 | 0.55 | 71 | 1012.5 |
| 20260509160022 | 59 | 84 | 0.0 | 5.0 | 0.00 | 0.78 | 0.55 | 75 | 1012.7 |
| 20260509154519 | 59 | 129 | 1.0 | 3.0 | 0.00 | 0.79 | 0.55 | 76 | 1012.9 |
| 20260509153014 | 58 | 132 | 2.0 | 6.0 | 0.00 | 0.79 | 0.55 | 76 | 1013.0 |
| 20260509151510 | 56 | 129 | 0.0 | 4.0 | 0.00 | 0.79 | 0.55 | 82 | 1013.2 |
| 20260509150015 | 54 | 151 | 2.0 | 7.0 | 0.00 | 0.79 | 0.55 | 86 | 1013.3 |
| 20260509144509 | 53 | 115 | 0.0 | 3.0 | 0.00 | 0.99 | 0.55 | 90 | 1013.0 |
| 20260509143059 | 52 | 140 | 0.0 | 4.0 | 0.00 | 0.99 | 0.55 | 93 | 1013.4 |
| 20260509141556 | 51 | 28 | 0.0 | 5.0 | 0.00 | 0.99 | 0.55 | 95 | 1013.6 |
| 20260509140104 | 50 | 74 | 0.0 | 2.0 | 0.00 | 0.99 | 0.55 | 96 | 1014.0 |
| 20260509134551 | 48 | 32 | 0.0 | 1.0 | 0.00 | 1.02 | 0.55 | 96 | 1014.0 |
| 20260509133044 | 47 | 32 | 0.0 | 2.0 | 0.00 | 1.02 | 0.55 | 96 | 1014.3 |
| 20260509131552 | 46 | 28 | 0.0 | 1.0 | 0.00 | 1.02 | 0.55 | 96 | 1014.4 |
| 20260509130036 | 45 | 341 | 0.0 | 1.0 | 0.00 | 1.02 | 0.55 | 96 | 1014.5 |
| 20260509124536 | 44 | 341 | 0.0 | 0.0 | 0.00 | 1.02 | 0.55 | 95 | 1014.6 |
| 20260509123028 | 43 | 341 | 0.0 | 0.0 | 0.00 | 1.02 | 0.55 | 95 | 1014.5 |
| 20260509121533 | 42 | 341 | 0.0 | 0.0 | 0.00 | 1.02 | 0.55 | 94 | 1014.3 |
| 20260509120023 | 42 | 341 | 0.0 | 2.0 | 0.18 | 1.02 | 0.55 | 94 | 1014.5 |
| 20260509114520 | 41 | 341 | 0.0 | 0.0 | 0.28 | 1.02 | 0.55 | 93 | 1014.5 |
| 20260509113019 | 41 | 340 | 0.0 | 1.0 | 0.28 | 1.02 | 0.55 | 93 | 1014.9 |
| 20260509111519 | 41 | 340 | 0.0 | 0.0 | 0.28 | 1.02 | 0.55 | 93 | 1015.1 |
| 20260509110016 | 40 | 340 | 0.0 | 1.0 | 0.11 | 0.84 | 0.37 | 92 | 1015.3 |
| 20260509104514 | 40 | 340 | 0.0 | 0.0 | 0.00 | 0.73 | 0.26 | 91 | 1015.0 |
| 20260509103012 | 39 | 340 | 0.0 | 1.0 | 0.00 | 0.73 | 0.26 | 91 | 1014.8 |
| 20260509101510 | 38 | 340 | 0.0 | 0.0 | 0.00 | 0.73 | 0.26 | 91 | 1014.5 |
| 20260509100008 | 38 | 340 | 0.0 | 0.0 | 0.00 | 0.73 | 0.26 | 91 | 1014.1 |
| 20260509094503 | 37 | 340 | 0.0 | 0.0 | 0.00 | 0.73 | 0.26 | 92 | 1013.7 |
| 20260509093003 | 37 | 340 | 0.0 | 0.0 | 0.00 | 0.73 | 0.26 | 92 | 1013.6 |
| 20260509091503 | 36 | 340 | 0.0 | 0.0 | 0.00 | 0.73 | 0.26 | 92 | 1013.4 |
| 20260509090001 | 36 | 340 | 0.0 | 1.0 | 0.00 | 0.73 | 0.26 | 91 | 1013.7 |
| 20260509084604 | 35 | 340 | 0.0 | 0.0 | 0.00 | 0.73 | 0.26 | 90 | 1013.4 |
| 20260509083102 | 36 | 340 | 0.0 | 0.0 | 0.00 | 0.73 | 0.26 | 90 | 1013.4 |
| 20260509081600 | 36 | 340 | 0.0 | 0.0 | 0.05 | 0.73 | 0.26 | 90 | 1013.7 |
| 20260509074556 | 36 | 340 | 0.0 | 0.0 | 0.25 | 0.73 | 0.26 | 89 | 1013.8 |
| 20260509073056 | 36 | 340 | 0.0 | 0.0 | 0.20 | 0.68 | 0.21 | 90 | 1013.9 |
| 20260509071555 | 36 | 340 | 0.0 | 0.0 | 0.20 | 0.68 | 0.21 | 90 | 1013.7 |
| 20260509070053 | 37 | 340 | 0.0 | 0.0 | 0.13 | 0.61 | 0.14 | 89 | 1013.9 |
| 20260509064550 | 37 | 340 | 0.0 | 0.0 | 0.01 | 0.48 | 0.01 | 89 | 1013.9 |
| 20260509063056 | 37 | 340 | 0.0 | 0.0 | 0.01 | 0.48 | 0.01 | 89 | 1013.9 |
| 20260509061548 | 37 | 340 | 0.0 | 0.0 | 0.01 | 0.48 | 0.01 | 88 | 1013.8 |
| 20260509060050 | 38 | 340 | 0.0 | 0.0 | 0.01 | 0.48 | 0.01 | 88 | 1013.6 |
| 20260509054543 | 38 | 340 | 0.0 | 0.0 | 0.00 | 0.47 | 0.00 | 88 | 1013.7 |
| 20260509053107 | 38 | 340 | 0.0 | 0.0 | 0.00 | 0.47 | 0.00 | 87 | 1013.6 |
| 20260509051540 | 39 | 340 | 0.0 | 0.0 | 0.00 | 0.47 | 0.00 | 86 | 1013.6 |
| 20260509050038 | 39 | 340 | 0.0 | 0.0 | 0.00 | 0.47 | 0.00 | 84 | 1013.5 |
| 20260509044535 | 40 | 340 | 0.0 | 0.0 | 0.00 | 0.47 | 0.00 | 83 | 1013.5 |
| 20260509043039 | 40 | 340 | 0.0 | 0.0 | 0.00 | 0.47 | 0.00 | 83 | 1013.5 |
| 20260509041540 | 41 | 340 | 0.0 | 0.0 | 0.00 | 0.47 | 0.00 | 81 | 1013.4 |
| 20260509040029 | 41 | 340 | 0.0 | 2.0 | 0.00 | 0.47 | 0.00 | 80 | 1013.2 |
| 20260509034526 | 42 | 340 | 0.0 | 0.0 | 0.00 | 0.47 | 0.47 | 80 | 1013.2 |
| 20260509033026 | 42 | 340 | 0.0 | 0.0 | 0.00 | 0.47 | 0.47 | 79 | 1013.0 |
| 20260509031526 | 43 | 340 | 0.0 | 0.0 | 0.00 | 0.47 | 0.47 | 79 | 1013.0 |
| 20260509030024 | 44 | 340 | 0.0 | 0.0 | 0.00 | 0.47 | 0.47 | 78 | 1013.1 |
| 20260509024523 | 45 | 340 | 0.0 | 0.0 | 0.00 | 0.47 | 0.47 | 76 | 1013.0 |
| 20260509023022 | 46 | 340 | 0.0 | 0.0 | 0.00 | 0.47 | 0.47 | 73 | 1012.8 |
| 20260509021521 | 47 | 340 | 0.0 | 0.0 | 0.00 | 0.47 | 0.47 | 72 | 1012.7 |
| 20260509020023 | 48 | 340 | 0.0 | 0.0 | 0.00 | 0.47 | 0.47 | 67 | 1012.6 |
| 20260509014517 | 49 | 340 | 0.0 | 0.0 | 0.00 | 0.47 | 0.47 | 64 | 1012.4 |
| 20260509013014 | 50 | 340 | 0.0 | 0.0 | 0.00 | 0.47 | 0.47 | 62 | 1012.1 |
| 20260509011513 | 51 | 340 | 0.0 | 0.0 | 0.00 | 0.47 | 0.47 | 60 | 1011.8 |
| 20260509010027 | 52 | 340 | 0.0 | 3.0 | 0.00 | 0.47 | 0.47 | 58 | 1011.4 |
| 20260509004517 | 52 | 335 | 1.0 | 4.0 | 0.00 | 0.47 | 0.47 | 57 | 1011.2 |
| 20260509003005 | 52 | 326 | 0.0 | 2.0 | 0.01 | 0.47 | 0.47 | 57 | 1010.9 |
| 20260509001504 | 53 | 326 | 0.0 | 2.0 | 0.01 | 0.47 | 0.47 | 57 | 1010.6 |
| 20260508234558 | 54 | 321 | 1.0 | 4.0 | 0.01 | 0.47 | 0.47 | 53 | 1009.9 |
| 20260508233111 | 55 | 304 | 0.0 | 8.0 | 0.00 | 0.46 | 0.46 | 51 | 1009.7 |
| 20260508231559 | 55 | 304 | 1.0 | 9.0 | 0.00 | 0.46 | 0.46 | 50 | 1009.7 |
| 20260508230105 | 56 | 330 | 4.0 | 13.0 | 0.00 | 0.46 | 0.46 | 47 | 1009.6 |
| 20260508224555 | 56 | 325 | 5.0 | 12.0 | 0.00 | 0.46 | 0.46 | 48 | 1009.5 |
| 20260508223056 | 57 | 308 | 2.0 | 14.0 | 0.00 | 0.46 | 0.46 | 48 | 1009.4 |
| 20260508221555 | 57 | 300 | 1.0 | 13.0 | 0.00 | 0.46 | 0.46 | 49 | 1009.3 |
| 20260508220057 | 57 | 259 | 2.0 | 14.0 | 0.00 | 0.46 | 0.46 | 48 | 1009.2 |
| 20260508214602 | 57 | 297 | 3.0 | 11.0 | 0.00 | 0.46 | 0.46 | 50 | 1009.2 |
| 20260508213054 | 57 | 300 | 2.0 | 11.0 | 0.00 | 0.46 | 0.46 | 51 | 1009.2 |
| 20260508211554 | 57 | 318 | 5.0 | 16.0 | 0.01 | 0.46 | 0.46 | 50 | 1009.1 |
| 20260508210053 | 57 | 355 | 3.0 | 12.0 | 0.01 | 0.46 | 0.46 | 51 | 1009.1 |
| 20260508204551 | 57 | 329 | 3.0 | 14.0 | 0.01 | 0.46 | 0.46 | 49 | 1009.0 |
| 20260508203052 | 57 | 326 | 2.0 | 13.0 | 0.02 | 0.46 | 0.46 | 49 | 1009.0 |
| 20260508201551 | 58 | 323 | 8.0 | 16.0 | 0.03 | 0.45 | 0.45 | 47 | 1008.7 |
| 20260508200056 | 58 | 328 | 8.0 | 16.0 | 0.06 | 0.45 | 0.45 | 46 | 1008.4 |
| 20260508194550 | 59 | 294 | 4.0 | 16.0 | 0.07 | 0.45 | 0.45 | 44 | 1008.3 |
| 20260508193053 | 59 | 300 | 1.0 | 12.0 | 0.08 | 0.44 | 0.44 | 41 | 1008.0 |
| 20260508191555 | 59 | 342 | 7.0 | 16.0 | 0.17 | 0.42 | 0.42 | 39 | 1007.9 |
| 20260508190051 | 59 | 315 | 3.0 | 11.0 | 0.14 | 0.39 | 0.39 | 39 | 1007.9 |
| 20260508184547 | 60 | 285 | 6.0 | 15.0 | 0.13 | 0.38 | 0.38 | 39 | 1007.8 |
| 20260508183046 | 59 | 360 | 4.0 | 11.0 | 0.11 | 0.36 | 0.36 | 42 | 1007.9 |
| 20260508181547 | 61 | 288 | 4.0 | 13.0 | 0.00 | 0.25 | 0.25 | 39 | 1008.0 |